Weather History for Stockton, CA

Change the Weather History Date:

Tuesday, July 2, 2013

  Actual Average Record
Temperature  
Mean Temperature 90 °F -  
Max Temperature 106 °F 92 °F 110 °F (1950)
Min Temperature 74 °F 59 °F 50 °F (1956)
Degree Days  
Heating Degree Days 0 0  
Month to date heating degree days 0 0  
Since 1 June heating degree days 0 7  
Since 1 July heating degree days 0 0  
Cooling Degree Days 25 11  
Month to date cooling degree days 45 22  
Year to date cooling degree days 507 371  
Since 1 June cooling degree days 326 252  
Growing Degree Days 40 (Base 50)    
Moisture  
Dew Point 59 °F    
Average Humidity 41    
Maximum Humidity 58    
Minimum Humidity 23    
Precipitation  
Precipitation 0.00 in 0.00 in 0.50 in (1980)
Month to date precipitation 0.00 0.00  
Year to date precipitation 2.88 9.03  
Since 1 July precipitation 0.00 0.00  
Snow  
Snow 0.00 in - - ()
Month to date snowfall 0.0  
Since 1 June snowfall 0.0  
Since 1 July snowfall 0.0  
Snow Depth -    
Sea Level Pressure  
Sea Level Pressure 29.81 in    
Wind  
Wind Speed 6 mph (WNW)    
Max Wind Speed 14 mph    
Max Gust Speed 16 mph    
Visibility 10 miles    
Events      
T = Trace of Precipitation, MM = Missing Value Source: NWS Daily Summary

Daily Weather History Graph

Daily Weather History Graph

Search for Another Location

Airport:

Trip Planner

Search our weather history database for the weather conditions in past years. The results will help you decide how hot, cold, wet, or windy it might be!

Date:

Astronomy

Jul. 02, 2013 Rise Set
Actual Time 5:46 AM PDT 8:30 PM PDT
Civil Twilight 5:15 AM PDT 9:02 PM PDT
Nautical Twilight 4:36 AM PDT 9:41 PM PDT
Astronomical Twilight 3:52 AM PDT 10:25 PM PDT
Moon 1:49 AM PDT (7/2) 3:52 PM PDT (7/2)
Length of Visible Light 15h 46m
Length of Day
14h 43m
Waning Crescent, 25% of the Moon is Illuminated
Jul 2
Waning Crescent
Jul 8
New
Jul 15
First Quarter
Jul 22
Full
Jul 29
Last Quarter

Hourly Weather History & Observations

Time (PDT) Temp. Heat Index Dew Point Humidity Pressure Visibility Wind Dir Wind Speed Gust Speed Precip Events Conditions
12:55 AM 80.1 °F 80.9 °F 60.1 °F 50% 29.78 in 10.0 mi SSW 3.5 mph - N/A   Clear
1:55 AM 82.9 °F 82.4 °F 57.0 °F 41% 29.75 in 10.0 mi NW 6.9 mph - N/A   Clear
2:55 AM 75.9 °F - 59.0 °F 56% 29.77 in 10.0 mi Calm Calm - N/A   Clear
3:55 AM 80.1 °F 80.6 °F 57.9 °F 47% 29.76 in 10.0 mi NW 9.2 mph - N/A   Clear
4:55 AM 78.1 °F - 57.0 °F 48% 29.77 in 10.0 mi WNW 3.5 mph - N/A   Clear
5:55 AM 75.0 °F - 57.0 °F 53% 29.77 in 10.0 mi NNW 3.5 mph - N/A   Clear
7:55 AM 81.0 °F 81.3 °F 59.0 °F 47% 29.82 in 10.0 mi NE 4.6 mph - N/A   Clear
8:55 AM 84.9 °F 83.9 °F 57.0 °F 38% 29.82 in 10.0 mi Calm Calm - N/A   Clear
9:55 AM 88.0 °F 87.1 °F 59.0 °F 37% 29.84 in 10.0 mi South 4.6 mph - N/A   Clear
10:55 AM 91.9 °F 92.5 °F 62.1 °F 37% 29.84 in 10.0 mi Variable 5.8 mph - N/A   Clear
11:55 AM 96.1 °F 95.6 °F 59.0 °F 29% 29.83 in 10.0 mi SW 6.9 mph - N/A   Clear
12:55 PM 100.0 °F 99.7 °F 57.9 °F 25% 29.83 in 10.0 mi Calm Calm - N/A   Clear
1:55 PM 102.9 °F 102.4 °F 57.0 °F 22% 29.81 in 10.0 mi South 6.9 mph - N/A   Clear
2:55 PM 104.0 °F 105.3 °F 60.1 °F 24% 29.81 in 10.0 mi SSE 6.9 mph - N/A   Clear
3:55 PM 102.9 °F 104.8 °F 62.1 °F 26% 29.81 in 10.0 mi ESE 8.1 mph - N/A   Clear
4:55 PM 106.0 °F 107.8 °F 61.0 °F 23% 29.80 in 10.0 mi SSE 9.2 mph - N/A   Clear
5:55 PM 104.0 °F 104.0 °F 57.9 °F 22% 29.78 in 10.0 mi Variable 3.5 mph - N/A   Clear
6:55 PM 99.0 °F 100.5 °F 62.1 °F 30% 29.78 in 10.0 mi WNW 16.1 mph - N/A   Clear
7:55 PM 91.0 °F 89.7 °F 57.0 °F 32% 29.80 in 10.0 mi WNW 10.4 mph - N/A   Clear
8:55 PM 86.0 °F 85.0 °F 57.9 °F 38% 29.81 in 10.0 mi NNW 9.2 mph - N/A   Clear
9:55 PM 81.0 °F 81.1 °F 57.9 °F 45% 29.83 in 10.0 mi North 9.2 mph - N/A   Clear
10:55 PM 78.1 °F - 55.9 °F 46% 29.85 in 10.0 mi North 8.1 mph - N/A   Clear
11:55 PM 75.0 °F - 55.0 °F 50% 29.86 in 10.0 mi NW 10.4 mph - N/A   Clear